Погода в Замосьце

Польша     50°43′10″N   23°15′11″E
темп.,
°C
ветер,
м/с
пор.,
м/с
влажн.,
%
обл.,
%
осадки,
мм/ч
давл.,
гПа
погр.,
м
25 февраля, чт
чт2501:00+4юз348833 0.0 103352
04:00+3зюз34919 0.0 103247
07:00+3зюз349219 0.0 103247
10:00+7зюз368890 0.0 1031160
13:00+10зюз358381 0.0 1030256
16:00+8юз34850 0.0 102958
19:00+6юз59860 0.0 1028146
22:00+4юз58890 0.0 1028135
26 февраля, пт
пт2601:00+5зюз612900 0.0 1028221
04:00+4зюз510920 0.0 1026186
07:00+4зюз59940 0.0 1027170
10:00+8з58875 0.0 1026351
13:00+11зсз687923 0.0 1025793
16:00+8зсз399397 0.4 1024430
19:00+6зсз5117498 1.9 1024614
22:00+5зсз61384100 0.1 1024746
27 февраля, сб
сб2701:00+3зсз6138764 0.1 1025630
04:00+3зсз7138588 0.0 1024852
07:00+3зсз7148794 0.1 1024837
10:00+4сз81283100 0.1 10241047
13:00+5сз8127095 0.1 10261143
16:00+4сз71270100 0.1 10261169
19:00+4сз61274100 0.1 1027859
22:00+1сз5138511 0.0 1028583
28 февраля, вс
вс2801:000сз5119211 0.0 1031442
04:00−1сз599353 0.0 1031400
07:00−1сз579076 0.0 1032425
10:00+1сз5777100 0.0 1033518
13:00+4сз6863100 0.0 1032824
16:00+4сз47650 0.0 1032773
19:00+1сз36812 0.0 1033151
22:000сз358614 0.0 1034133
1 марта, пн
пн101:000зсз358922 0.0 1034105
04:000зсз368951 0.0 1033163
07:00+1зсз388475 0.0 1033312
10:00+3с3582100 0.1 1034453
13:00+4с228399 0.1 1035386
16:00+3ссв128697 0.0 103665
19:00+2всв118898 0.1 103722
22:00+1зюз118891 0.0 103822